FW7257 Weather Reports


time (UTC)temp
C
wind
direction
speed
KPH
gust
KPH
rain 1hr
cm
rain 24hr
cm
rain mn
cm
humidity
%
barometer
mb
20260504204937 25 231 1.6 9.7 0.00 0.00 0.00 37 1015.7
20260504204436 25 257 3.2 9.7 0.00 0.00 0.00 37 1015.8
20260504203938 25 244 1.6 6.4 0.00 0.00 0.00 37 1015.8
20260504203439 25 0 0.0 4.8 0.00 0.00 0.00 38 1016.0
20260504202936 25 186 0.0 6.4 0.00 0.00 0.00 38 1015.9
20260504202439 25 197 0.0 6.4 0.00 0.00 0.00 36 1015.9
20260504201938 25 0 0.0 6.4 0.00 0.00 0.00 35 1016.1
20260504201437 26 238 1.6 6.4 0.00 0.00 0.00 36 1016.2
20260504200938 26 172 0.0 3.2 0.00 0.00 0.00 35 1016.1
20260504200440 26 0 0.0 4.8 0.00 0.00 0.00 37 1016.2
20260504195939 26 210 3.2 4.8 0.00 0.00 0.00 36 1016.3
20260504195439 26 0 0.0 4.8 0.00 0.00 0.00 37 1016.3
20260504194939 26 0 0.0 4.8 0.00 0.00 0.00 38 1016.3
20260504194442 25 238 1.6 4.8 0.00 0.00 0.00 38 1016.4
20260504193939 25 0 0.0 4.8 0.00 0.00 0.00 38 1016.5
20260504193438 25 257 3.2 4.8 0.00 0.00 0.00 38 1016.6
20260504192937 26 0 0.0 8.0 0.00 0.00 0.00 36 1016.6
20260504192442 26 244 1.6 8.0 0.00 0.00 0.00 38 1016.7
20260504191941 26 243 1.6 4.8 0.00 0.00 0.00 37 1016.7
20260504191442 26 233 1.6 4.8 0.00 0.00 0.00 36 1016.7
20260504190938 26 231 3.2 4.8 0.00 0.00 0.00 37 1016.8
20260504190440 26 288 1.6 6.4 0.00 0.00 0.00 36 1016.8
20260504185939 26 227 1.6 6.4 0.00 0.00 0.00 36 1017.0
20260504185441 26 219 1.6 6.4 0.00 0.00 0.00 40 1017.1
20260504184940 26 0 0.0 3.2 0.00 0.00 0.00 39 1017.0
20260504184436 26 211 0.0 6.4 0.00 0.00 0.00 40 1017.1
20260504183942 25 0 0.0 6.4 0.00 0.00 0.00 44 1017.0
20260504183438 25 239 1.6 8.0 0.00 0.00 0.00 39 1017.0
20260504182938 25 199 3.2 8.0 0.00 0.00 0.00 39 1017.1
20260504182436 25 203 1.6 4.8 0.00 0.00 0.00 40 1017.3
20260504181942 25 143 0.0 8.0 0.00 0.00 0.00 40 1017.5
20260504181438 24 105 1.6 8.0 0.00 0.00 0.00 43 1017.5
20260504180941 24 219 4.8 8.0 0.00 0.00 0.00 42 1017.5
20260504180441 24 183 1.6 8.0 0.00 0.00 0.00 40 1017.5
20260504175944 23 202 1.6 9.7 0.00 0.00 0.00 42 1017.5
20260504175441 23 264 6.4 9.7 0.00 0.00 0.00 41 1017.7
20260504174938 23 244 0.0 8.0 0.00 0.00 0.00 43 1017.7
20260504174441 24 205 6.4 8.0 0.00 0.00 0.00 40 1017.7
20260504173939 24 207 4.8 8.0 0.00 0.00 0.00 40 1017.7
20260504173439 24 187 3.2 4.8 0.00 0.00 0.00 40 1017.8
20260504172939 24 172 1.6 4.8 0.00 0.00 0.00 43 1017.9
20260504172437 23 0 0.0 4.8 0.00 0.00 0.00 43 1018.1
20260504171941 24 267 4.8 4.8 0.00 0.00 0.00 42 1018.1
20260504171437 25 235 1.6 3.2 0.00 0.00 0.00 41 1018.2
20260504170943 24 236 0.0 3.2 0.00 0.00 0.00 41 1018.2
20260504170437 24 0 0.0 8.0 0.00 0.00 0.00 45 1018.3
20260504160437 23 193 1.6 6.4 0.00 0.00 0.00 45 1019.2
20260504150942 22 180 1.6 4.8 0.00 0.00 0.00 47 1019.5
20260504150441 22 172 1.6 8.0 0.00 0.00 0.00 46 1019.5
20260504140944 20 0 0.0 0.0 0.00 0.00 0.00 53 1019.6
20260504140439 20 0 0.0 0.0 0.00 0.00 0.00 53 1019.7
20260504130439 16 0 0.0 0.0 0.00 0.00 0.00 62 1019.6
20260504110441 6 0 0.0 0.0 0.00 0.00 0.00 88 1019.1
20260504100440 6 0 0.0 0.0 0.00 0.00 0.00 86 1019.1
20260504081939 7 0 0.0 0.0 0.00 0.00 0.00 83 1019.1
20260504081442 7 0 0.0 0.0 0.00 0.00 0.00 83 1019.0
20260504080941 7 0 0.0 0.0 0.00 0.00 0.00 83 1019.0
20260504080438 8 0 0.0 0.0 0.00 0.00 0.00 82 1019.1
20260504070340 8 0 0.0 0.0 0.00 0.00 0.00 76 1019.3
20260504050340 10 0 0.0 0.0 0.00 0.00 0.00 72 1019.6
20260504045839 10 0 0.0 0.0 0.00 0.00 0.00 72 1019.6
20260504045340 11 0 0.0 0.0 0.00 0.00 0.00 72 1019.5
20260504044842 11 0 0.0 0.0 0.00 0.00 0.00 72 1019.5
20260504044342 11 0 0.0 0.0 0.00 0.00 0.00 72 1019.4
20260504043839 11 0 0.0 0.0 0.00 0.00 0.00 72 1019.5
20260504043342 11 0 0.0 0.0 0.00 0.00 0.00 70 1019.4
20260504042838 11 0 0.0 0.0 0.00 0.00 0.00 69 1019.5
20260504042338 11 0 0.0 0.0 0.00 0.00 0.00 69 1019.4
20260504041844 11 0 0.0 0.0 0.00 0.00 0.00 68 1019.5
20260504041336 11 0 0.0 0.0 0.00 0.00 0.00 68 1019.5
20260504040838 11 0 0.0 0.0 0.00 0.00 0.00 68 1019.6
20260504040338 11 0 0.0 0.0 0.00 0.00 0.00 68 1019.6
20260504035841 11 0 0.0 0.0 0.00 0.00 0.00 67 1019.7
20260504035337 12 0 0.0 0.0 0.00 0.00 0.00 65 1019.7
20260504034839 12 0 0.0 0.0 0.00 0.00 0.00 65 1019.7
20260504034342 12 0 0.0 0.0 0.00 0.00 0.00 66 1019.7
20260504033836 11 0 0.0 0.0 0.00 0.00 0.00 66 1019.6
20260504033337 11 0 0.0 0.0 0.00 0.00 0.00 67 1019.6
20260504032836 11 0 0.0 0.0 0.00 0.00 0.00 67 1019.5
20260504032340 11 0 0.0 0.0 0.00 0.00 0.00 66 1019.6
20260504031842 11 0 0.0 0.0 0.00 0.00 0.00 66 1019.6
20260504031338 11 0 0.0 0.0 0.00 0.00 0.00 67 1019.6
20260504030841 11 0 0.0 0.0 0.00 0.00 0.00 65 1019.6
20260504030341 12 0 0.0 0.0 0.00 0.00 0.00 65 1019.6
20260504025841 12 0 0.0 0.0 0.00 0.00 0.00 64 1019.6
20260504025341 12 0 0.0 0.0 0.00 0.00 0.00 63 1019.7
20260504024837 12 0 0.0 0.0 0.00 0.00 0.00 63 1019.5
20260504024338 12 0 0.0 0.0 0.00 0.00 0.00 63 1019.5
20260504023841 12 0 0.0 0.0 0.00 0.00 0.00 62 1019.5
20260504023337 12 0 0.0 0.0 0.00 0.00 0.00 61 1019.6
20260504022840 12 0 0.0 0.0 0.00 0.00 0.00 61 1019.4
20260504022336 13 0 0.0 0.0 0.00 0.00 0.00 60 1019.4
20260504021838 13 0 0.0 0.0 0.00 0.00 0.00 58 1019.3
20260504021342 13 0 0.0 0.0 0.00 0.00 0.00 59 1019.3
20260504020837 13 0 0.0 0.0 0.00 0.00 0.00 59 1019.3
20260504020337 13 0 0.0 0.0 0.00 0.00 0.00 56 1019.2
20260504015839 13 0 0.0 0.0 0.00 0.00 0.00 57 1019.1
20260504015339 13 0 0.0 0.0 0.00 0.00 0.00 56 1018.9
20260504014837 13 0 0.0 1.6 0.00 0.00 0.00 56 1019.0
20260504014338 14 0 0.0 1.6 0.00 0.00 0.00 56 1019.0
20260504013838 14 0 0.0 0.0 0.00 0.00 0.00 56 1018.9
20260504013339 14 0 0.0 0.0 0.00 0.00 0.00 56 1018.9
20260504012841 14 0 0.0 0.0 0.00 0.00 0.00 56 1018.8
20260504012335 14 0 0.0 0.0 0.00 0.00 0.00 55 1018.7
20260504011835 14 0 0.0 0.0 0.00 0.00 0.00 54 1018.7
20260504011340 15 0 0.0 0.0 0.00 0.00 0.00 54 1018.7
20260504010842 15 0 0.0 0.0 0.00 0.00 0.00 53 1018.8
20260504010341 15 0 0.0 0.0 0.00 0.00 0.00 52 1018.6
20260504005838 15 0 0.0 0.0 0.00 0.00 0.00 51 1018.5
20260504005342 16 0 0.0 0.0 0.00 0.00 0.00 50 1018.4
20260504004840 16 0 0.0 0.0 0.00 0.00 0.00 50 1018.5
20260504004338 16 0 0.0 0.0 0.00 0.00 0.00 48 1018.4
20260504003836 16 0 0.0 0.0 0.00 0.00 0.00 47 1018.5
20260504003340 17 0 0.0 0.0 0.00 0.00 0.00 47 1018.3
20260504002835 17 0 0.0 0.0 0.00 0.00 0.00 46 1018.3
20260504002337 17 0 0.0 0.0 0.00 0.00 0.00 46 1018.3
20260504001845 17 0 0.0 3.2 0.00 0.00 0.00 45 1018.3
20260504001339 17 0 0.0 3.2 0.00 0.00 0.00 44 1018.3
20260504000841 18 171 1.6 1.6 0.00 0.00 0.00 45 1018.3
20260504000337 18 0 0.0 1.6 0.00 0.00 0.00 45 1018.3
20260503235843 18 0 0.0 1.6 0.00 0.00 0.00 44 1018.2
20260503235342 18 0 0.0 1.6 0.00 0.00 0.00 43 1018.0
20260503234842 18 0 0.0 1.6 0.00 0.00 0.00 43 1018.0
20260503234337 18 0 0.0 1.6 0.00 0.00 0.00 42 1017.9
20260503233840 18 0 0.0 3.2 0.00 0.00 0.00 41 1018.1
20260503233339 19 0 0.0 3.2 0.00 0.00 0.00 41 1018.0
20260503232843 19 162 1.6 3.2 0.00 0.00 0.00 43 1018.1
20260503232341 19 0 0.0 3.2 0.00 0.00 0.00 41 1018.0
20260503231838 19 182 1.6 1.6 0.00 0.00 0.00 41 1018.1
20260503231337 19 183 0.0 3.2 0.00 0.00 0.00 40 1018.1
20260503230836 19 0 0.0 3.2 0.00 0.00 0.00 40 1018.1
20260503230336 19 165 1.6 3.2 0.00 0.00 0.00 40 1018.2
20260503225841 20 170 1.6 3.2 0.00 0.00 0.00 41 1018.1
20260503225340 20 170 0.0 4.8 0.00 0.00 0.00 41 1018.2
20260503224839 20 0 0.0 4.8 0.00 0.00 0.00 42 1018.2
20260503224339 20 140 1.6 8.0 0.00 0.00 0.00 41 1018.3
20260503223836 20 0 0.0 8.0 0.00 0.00 0.00 40 1018.1
20260503223336 20 0 0.0 1.6 0.00 0.00 0.00 39 1018.2
20260503222838 20 0 0.0 3.2 0.00 0.00 0.00 38 1018.2
20260503222340 20 171 0.0 3.2 0.00 0.00 0.00 39 1018.3
20260503221837 20 172 1.6 3.2 0.00 0.00 0.00 37 1018.3
20260503221338 20 162 1.6 8.0 0.00 0.00 0.00 38 1018.2
20260503220841 20 167 3.2 8.0 0.00 0.00 0.00 36 1018.3
20260503220342 20 148 1.6 8.0 0.00 0.00 0.00 37 1018.2
20260503215839 20 207 1.6 8.0 0.00 0.00 0.00 34 1018.3
20260503215340 20 168 0.0 8.0 0.00 0.00 0.00 36 1018.2
20260503214834 20 141 3.2 12.9 0.00 0.00 0.00 35 1018.3
20260503214338 20 170 0.0 12.9 0.00 0.00 0.00 36 1018.4
20260503213843 20 174 1.6 4.8 0.00 0.00 0.00 38 1018.3
20260503213338 20 174 1.6 4.8 0.00 0.00 0.00 38 1018.3
20260503212838 20 231 0.0 6.4 0.00 0.00 0.00 38 1018.3
20260503212341 20 166 1.6 6.4 0.00 0.00 0.00 39 1018.4
20260503211840 20 214 0.0 4.8 0.00 0.00 0.00 37 1018.4
20260503211341 20 191 1.6 9.7 0.00 0.00 0.00 36 1018.4
20260503210838 20 192 1.6 9.7 0.00 0.00 0.00 38 1018.5
20260503210343 20 195 1.6 6.4 0.00 0.00 0.00 36 1018.5
20260503205839 20 154 1.6 4.8 0.00 0.00 0.00 38 1018.5
20260503205336 20 0 0.0 6.4 0.00 0.00 0.00 37 1018.6